#timestamp,LO_Frequency,Hit,StdDev 
1518706815.5,286046998.6,N
1518706835.3,286046998.4,N
1518706855.1,286047000.7,N
1518706875.9,286047001.2,N
1518706895.7,286047000.3,N
1518706915.5,286046998.2,N
1518706935.4,286047001.1,N
1518706955.2,286047001.2,N
1518706975.1,286046998.2,N
1518706976.0,286046998.2,N
1518706995.8,286046998.8,N
1518707015.6,286046999.0,N
1518707035.5,286046998.1,N
1518707055.3,286046998.8,N
1518707075.1,286046999.9,N
1518707095.9,286047000.3,N
1518707115.7,286047000.4,N
1518707135.6,286047000.2,N
1518707155.4,286047000.5,N
1518707175.2,286047001.2,N
1518707195.1,286046999.3,N
1518707196.0,286046999.3,N
1518707215.8,286046998.2,N
1518707235.6,286047001.2,N
1518707255.5,286047000.9,N
1518707275.3,286047000.6,N
1518707295.2,286047001.1,N
1518707315.9,286046998.7,N
1518707335.7,286046998.6,N
1518707355.6,286047001.1,N
1518707375.4,286047001.1,N
1518707395.2,286047000.5,N
1518707415.1,286047000.5,N
1518707416.0,286047000.5,N
1518707435.8,286047000.5,N
1518707455.7,286046998.1,N
1518707475.5,286047000.8,N
1518707495.3,286047000.7,N
1518707515.2,286047001.0,N
1518707535.0,286047000.1,N
1518707535.9,286047000.1,N
1518707555.8,286047001.5,N
1518707575.6,286047002.2,N
1518707595.4,286047002.2,N
1518707615.3,286047002.5,N
1518707635.1,286046999.7,N
1518707655.8,286047002.1,N
1518707675.7,286047001.8,N
1518707695.5,286047001.8,N
1518707715.4,286047001.9,N
1518707735.2,286047002.0,N
1518707755.0,286047002.2,N
1518707755.9,286047002.2,N
1518707775.8,286047002.8,N
1518707795.6,286047001.7,N
1518707815.5,286047002.2,N
1518707835.3,286047000.0,N
1518707855.1,286047002.8,N
1518707875.9,286047000.1,N
1518707895.7,286047001.6,N
1518707915.6,286046999.8,N
1518707935.4,286047002.8,N
1518707955.2,286047001.4,N
1518707975.1,286047001.7,N
1518707976.0,286047001.7,N
1518707995.8,286047004.4,Y
1518708015.7,286047002.7,P
1518708035.5,286047000.9,N
1518708055.3,286047002.7,P
1518708075.2,286047001.0,N
1518708095.9,286047001.1,N
1518708115.7,286047000.4,N
1518708135.6,286047000.6,N
1518708155.4,286047000.3,N
1518708175.3,286047000.1,N
1518708195.1,286047002.7,Y
1518708215.8,286046999.8,P
1518708235.7,286047000.9,N
1518708255.5,286047000.4,N
1518708275.4,286047001.0,N
1518708295.2,286047001.0,N
1518708315.0,286047001.2,N
1518708315.9,286047001.2,N
1518708335.8,286047000.3,N
1518708355.6,286046999.7,N
1518708375.5,286047002.0,Y
1518708395.3,286047000.5,P
1518708415.1,286047000.2,N
1518708435.9,286047002.8,P
1518708455.7,286046998.2,N
1518708475.5,286046998.5,N
1518708495.4,286047000.4,N
1518708515.2,286047001.2,N
1518708535.1,286046998.4,N
1518708536.0,286046998.4,N
1518708555.8,286046998.9,N
1518708575.6,286046999.6,N
1518708595.5,286046996.8,N
1518708615.3,286046999.6,N
1518708635.1,286046996.5,N
1518708655.9,286046998.5,N
1518708675.7,286046999.1,N
1518708695.6,286046998.6,N
1518708715.4,286046998.9,N
1518708735.2,286047001.1,N
1518708755.1,286047000.6,N
1518708756.0,286047000.6,N
1518708775.8,286047000.2,N
1518708795.6,286047001.0,N
1518708815.5,286047000.7,N
1518708835.3,286047000.8,N
1518708855.2,286047000.9,N
1518708875.9,286047000.5,N
1518708895.7,286046998.9,N
1518708915.6,286046999.0,N
1518708935.4,286046998.7,N
1518708955.3,286046998.2,N
1518708975.1,286046999.1,N
1518708995.8,286047000.7,N
1518709015.7,286047000.4,N
1518709035.5,286047000.0,N
1518709055.4,286047000.2,N
1518709075.2,286047000.5,N
1518709095.0,286046998.6,N
1518709095.9,286046998.6,N
1518709115.8,286047001.0,N
1518709135.6,286047000.5,N
1518709155.4,286046998.2,N
1518709175.3,286047000.9,N
1518709195.1,286047002.1,N
1518709215.9,286047000.2,N
1518709235.7,286047000.5,N
1518709255.5,286047000.3,N
1518709275.4,286047000.9,N
1518709295.2,286047001.1,N
1518709315.0,286047000.0,N
1518709315.9,286047000.0,N
1518709335.8,286047000.0,N
1518709355.6,286047003.3,Y
1518709375.5,286047014.5,P
1518709395.3,286047013.4,N
1518709415.1,286047013.5,N
1518709435.9,286047007.9,N
1518709455.7,286047007.0,N
1518709475.5,286047006.7,N
1518709495.4,286047007.5,N
1518709515.2,286047005.9,N
1518709535.1,286047003.5,N
1518709536.0,286047003.5,N
1518709555.8,286047003.8,N
1518709575.6,286047004.2,N
1518709595.5,286047001.7,N
1518709615.3,286047002.5,N
1518709635.1,286047001.7,N
1518709655.9,286047002.0,N
1518709675.7,286047002.0,N
1518709695.6,286047002.1,N
1518709715.4,286047002.5,N
1518709735.2,286047002.8,N
1518709755.1,286047002.8,N
1518709756.0,286047002.8,N
1518709775.8,286046999.9,N
1518709795.6,286047002.8,N
1518709815.5,286047002.5,N
1518709835.3,286046999.7,N
1518709855.2,286047001.0,N
1518709875.9,286047000.8,N
1518709895.7,286047001.2,N
1518709915.6,286046998.8,N
1518709935.4,286046999.0,N
1518709955.2,286046998.5,N
1518709975.1,286047001.2,N
1518709976.0,286047001.2,N
1518709995.8,286046998.6,N
1518710015.7,286046998.5,N
1518710035.5,286046999.3,N
1518710055.3,286046998.3,N
1518710075.2,286046998.7,N
1518710095.0,286046999.3,N
1518710095.9,286046999.3,N
1518710115.7,286046998.2,N
1518710135.6,286046999.4,N
1518710155.4,286046998.5,N
1518710175.3,286046998.3,N
1518710195.1,286046998.1,N
1518710196.0,286046998.1,N
1518710215.8,286046998.5,N
1518710235.7,286046998.9,N
1518710255.5,286046998.9,N
1518710275.3,286046998.4,N
1518710295.2,286047000.4,N
1518710315.0,286046998.1,N
1518710315.9,286046998.1,N
1518710335.8,286046999.1,N
1518710355.6,286046999.4,N
1518710375.4,286046998.7,N
1518710395.3,286046999.3,N
